Location: Beekmeers
(50.8953°N, 3.6968°E)
Time: 16:08:13
(UTC+00:00)

ARIANE 6 FM1 Upper Stage - Visible Passes

Search period start: 22 January 2026 00:00
Search period end: 01 February 2026 00:00
Orbit: 522 x 610 km, 62.0° (Epoch: 22 January)

Date Brightness Start Highest point End Pass type
(mag) Time Alt. Az. Time Alt. Az. Time Alt. Az.
22 Jan 4.6 17:36:39 10° SE 17:38:21 12° ESE 17:38:36 12° ESE visible
22 Jan 4.3 19:12:41 10° SW 19:14:39 27° SW 19:14:39 27° SW visible
23 Jan 4.2 17:35:36 10° SSE 17:38:19 17° ESE 17:39:22 16° E visible
23 Jan 3.8 19:12:49 10° SW 19:15:25 38° WSW 19:15:25 38° WSW visible
24 Jan 3.9 17:35:01 10° S 17:38:18 24° ESE 17:40:02 18° E visible
24 Jan 3.6 19:13:03 10° WSW 19:16:05 44° W 19:16:05 44° W visible
25 Jan 3.4 17:34:39 10° S 17:38:19 33° SE 17:40:37 18° ENE visible
25 Jan 3.7 19:13:22 10° WSW 19:16:40 41° WNW 19:16:40 41° WNW visible
26 Jan 3.0 17:34:27 10° SSW 17:38:21 46° SE 17:41:07 17° ENE visible
26 Jan 3.9 19:13:44 10° W 19:17:10 35° NW 19:17:10 35° NW visible
27 Jan 2.6 17:34:23 10° SW 17:38:24 65° SE 17:41:33 16° NE visible
27 Jan 4.1 19:14:09 10° W 19:17:35 29° NNW 19:17:35 29° NNW visible
28 Jan 2.5 17:34:26 10° SW 17:38:29 88° SE 17:41:55 14° NE visible
28 Jan 4.3 19:14:36 10° W 19:17:56 25° NNW 19:17:56 25° NNW visible
29 Jan 2.8 17:34:33 10° SW 17:38:36 69° NW 17:42:14 12° NE visible
29 Jan 4.5 19:15:04 10° WNW 19:18:14 22° NNW 19:18:14 22° NNW visible
30 Jan 3.2 17:34:46 10° WSW 17:38:44 52° NW 17:42:29 11° NE visible
30 Jan 4.6 19:15:32 10° WNW 19:18:29 20° NNW 19:18:29 20° NNW visible
31 Jan 3.6 17:35:03 10° WSW 17:38:53 40° NNW 17:42:41 10° NE visible
31 Jan 4.7 19:16:00 10° NW 19:18:43 18° NNW 19:18:43 18° NNW visible
